{"data":{"norad_id":48142,"intl_designator":"2021-027BC","name":"STARLINK-2485","alt_names":[],"object_type":"PAYLOAD","status":"ACTIVE","operator":null,"country":"US","launch_date":"2021-04-07","launch_site_code":"AFETR","launch_vehicle":null,"mission":null,"orbit_class":"UNKNOWN","rcs_meters":null,"size_class":null,"mass_kg":null,"dimensions":null,"purposes":["comms"],"wikipedia_slug":null,"has_3d_model":false,"image_url":null,"decayed_at":null,"tle_current":{"epoch":"2026-05-25T00:32:32.280576Z","epoch_age_seconds":87248,"freshness":"FRESH","line1":"1 48142U 21027BC  26145.02259584 -.00078259  00000+0 -25103-2 0  9999","line2":"2 48142  53.1590 158.0165 0003435  57.1383 302.9948 15.32023758284377","mean_motion":15.32023758,"eccentricity":0.0003435,"inclination_deg":53.159,"raan_deg":158.0165,"arg_perigee_deg":57.1383,"mean_anomaly_deg":302.9948,"bstar":-0.0025103,"rev_number":28437,"period_min":93.993320435178,"perigee_km":467.42280164698,"apogee_km":472.12731723181,"semimajor_km":6847.9120594394,"source":"CELESTRAK","updated_at":"2026-05-25T13:38:16.650847Z"}}}